DW6479 Weather Reports


time (UTC)temp
C
wind
direction
speed
KPH
gust
KPH
rain 1hr
cm
rain 24hr
cm
rain mn
cm
humidity
%
barometer
mb
20260510000003 21 314 12.9 22.5 0.00 0.18 0.18 60 1027.0
20260509235003 21 314 9.7 14.5 0.00 0.18 0.18 60 1027.0
20260509234503 20 314 9.7 14.5 0.00 0.18 0.18 60 1027.0
20260509234003 20 314 11.3 16.1 0.00 0.18 0.18 60 1027.0
20260509233503 20 314 12.9 16.1 0.00 0.18 0.18 60 1027.1
20260509233003 20 314 12.9 17.7 0.00 0.18 0.18 60 1027.1
20260509232503 20 314 14.5 17.7 0.00 0.18 0.18 60 1027.0
20260509232003 20 314 12.9 17.7 0.00 0.18 0.18 60 1026.9
20260509231503 20 315 9.7 12.9 0.00 0.18 0.18 60 1026.9
20260509231003 20 340 9.7 12.9 0.00 0.18 0.18 61 1026.9
20260509230503 19 327 11.3 14.5 0.00 0.18 0.18 61 1026.9
20260509230004 19 337 14.5 19.3 0.00 0.18 0.18 61 1026.6
20260509225503 19 71 14.5 19.3 0.00 0.18 0.18 61 1026.5
20260509225003 19 97 11.3 14.5 0.00 0.18 0.18 61 1026.4
20260509224503 19 111 11.3 14.5 0.00 0.18 0.18 61 1026.5
20260509224003 18 112 12.9 14.5 0.00 0.18 0.18 61 1026.3
20260509223503 18 112 12.9 20.9 0.00 0.18 0.18 61 1026.3
20260509223003 18 93 12.9 20.9 0.00 0.18 0.18 62 1026.3
20260509222503 18 72 12.9 20.9 0.00 0.18 0.18 62 1026.4
20260509222004 18 69 9.7 14.5 0.00 0.18 0.18 62 1026.2
20260509221003 18 81 11.3 17.7 0.00 0.18 0.18 62 1026.2
20260509220503 17 121 12.9 17.7 0.00 0.18 0.18 63 1026.1
20260509220003 17 163 11.3 17.7 0.00 0.18 0.18 63 1026.0
20260509215503 17 303 8.0 17.7 0.00 0.18 0.18 64 1026.1
20260509215003 17 54 6.4 11.3 0.00 0.18 0.18 70 1025.9
20260509214503 16 111 6.4 6.4 0.00 0.18 0.18 70 1025.9
20260509214003 16 107 4.8 6.4 0.00 0.18 0.18 70 1025.7
20260509213503 16 92 4.8 6.4 0.00 0.18 0.18 71 1025.7
20260509213003 16 86 4.8 6.4 0.00 0.18 0.18 71 1025.8
20260509212503 15 90 3.2 6.4 0.00 0.18 0.18 71 1025.9
20260509212003 15 90 3.2 6.4 0.00 0.18 0.18 71 1025.8
20260509211503 15 90 3.2 4.8 0.00 0.18 0.18 71 1025.7
20260509211003 15 90 4.8 6.4 0.00 0.18 0.18 71 1025.4
20260509210503 15 90 6.4 8.0 0.00 0.18 0.18 71 1025.4
20260509205503 15 90 6.4 9.7 0.00 0.18 0.18 71 1025.2
20260509205003 15 90 8.0 11.3 0.00 0.18 0.18 71 1025.1
20260509204503 15 90 8.0 11.3 0.00 0.18 0.18 71 1024.9
20260509204004 15 90 8.0 11.3 0.00 0.18 0.18 71 1025.0
20260509203503 15 90 8.0 9.7 0.00 0.18 0.18 71 1025.1
20260509203003 15 84 6.4 11.3 0.00 0.18 0.18 71 1024.8
20260509202503 15 73 6.4 11.3 0.00 0.18 0.18 71 1024.8
20260509202003 15 68 6.4 9.7 0.00 0.18 0.18 71 1024.9
20260509201503 15 69 6.4 9.7 0.00 0.18 0.18 71 1024.7
20260509201003 15 81 6.4 9.7 0.00 0.18 0.18 71 1024.5
20260509200503 15 90 6.4 9.7 0.00 0.18 0.18 71 1024.3
20260509200004 15 90 6.4 9.7 0.00 0.18 0.18 71 1024.4
20260509195503 15 90 4.8 6.4 0.00 0.18 0.18 71 1024.5
20260509194503 15 90 4.8 6.4 0.00 0.18 0.18 71 1024.6
20260509194003 15 85 3.2 4.8 0.00 0.18 0.18 71 1024.6
20260509193502 15 84 3.2 4.8 0.00 0.18 0.18 71 1024.4
20260509193003 15 90 3.2 4.8 0.00 0.18 0.18 71 1024.6
20260509192502 15 90 3.2 4.8 0.00 0.18 0.18 71 1024.5
20260509192004 15 108 3.2 4.8 0.00 0.18 0.18 71 1024.4
20260509191503 15 145 4.8 6.4 0.00 0.18 0.18 71 1024.3
20260509191003 15 157 4.8 6.4 0.00 0.18 0.18 71 1024.4
20260509190503 15 149 4.8 6.4 0.00 0.18 0.18 72 1024.1
20260509190003 15 137 4.8 6.4 0.00 0.18 0.18 72 1024.0
20260509185503 15 135 4.8 6.4 0.00 0.18 0.18 72 1023.9
20260509185003 15 135 3.2 6.4 0.00 0.18 0.18 73 1023.9
20260509184503 15 135 1.6 4.8 0.00 0.18 0.18 73 1024.0
20260509183503 15 135 3.2 4.8 0.00 0.18 0.18 73 1023.8
20260509183003 15 135 4.8 4.8 0.00 0.18 0.18 73 1024.1
20260509182503 15 135 3.2 4.8 0.00 0.18 0.18 72 1023.9
20260509182003 15 135 3.2 4.8 0.00 0.18 0.18 72 1023.7
20260509181503 15 135 3.2 4.8 0.00 0.18 0.18 72 1023.8
20260509180503 15 145 4.8 6.4 0.00 0.18 0.18 73 1023.9
20260509180003 15 179 6.4 6.4 0.00 0.18 0.18 73 1023.8
20260509175503 15 203 4.8 6.4 0.00 0.18 0.18 74 1023.9
20260509175003 15 200 3.2 6.4 0.00 0.18 0.18 74 1023.8
20260509174503 15 187 3.2 6.4 0.00 0.18 0.18 74 1023.8
20260509174003 15 181 3.2 6.4 0.00 0.18 0.18 75 1023.9
20260509173503 15 181 1.6 4.8 0.00 0.18 0.18 75 1024.0
20260509172503 15 181 3.2 4.8 0.00 0.18 0.18 75 1024.0
20260509172003 14 181 3.2 4.8 0.00 0.18 0.18 75 1023.8
20260509171503 14 181 3.2 3.2 0.00 0.18 0.18 75 1024.0
20260509171003 14 182 1.6 4.8 0.00 0.18 0.18 75 1024.0
20260509170503 14 181 3.2 4.8 0.00 0.18 0.18 75 1023.9
20260509170003 14 181 3.2 4.8 0.00 0.18 0.18 75 1024.0
20260509165503 14 181 3.2 4.8 0.00 0.18 0.18 75 1024.0
20260509165003 14 181 3.2 4.8 0.00 0.18 0.18 76 1023.8
20260509164503 14 165 4.8 9.7 0.00 0.18 0.18 76 1024.0
20260509163503 14 23 4.8 9.7 0.00 0.18 0.18 77 1023.9
20260509163004 13 23 3.2 6.4 0.18 0.18 0.18 77 1024.0
20260509162503 13 22 6.4 6.4 0.18 0.18 0.18 78 1024.1
20260509162003 13 23 6.4 6.4 0.18 0.18 0.18 78 1023.9
20260509161503 13 23 3.2 6.4 0.18 0.18 0.18 78 1023.9
20260509161003 13 23 1.6 6.4 0.18 0.18 0.18 79 1023.9
20260509160503 13 23 1.6 6.4 0.18 0.18 0.18 79 1023.8
20260509160004 13 23 1.6 1.6 0.18 0.18 0.18 79 1024.0
20260509155503 13 23 1.6 1.6 0.18 0.18 0.18 79 1024.0
20260509155004 13 23 1.6 1.6 0.18 0.18 0.18 79 1024.0
20260509154503 13 23 0.0 1.6 0.18 0.18 0.18 79 1023.9
20260509154003 13 319 0.0 8.0 0.18 0.18 0.18 79 1024.0
20260509153009 18 320 6.4 9.7 0.00 0.00 0.00 80 1020.8
20260509152503 18 320 6.4 9.7 0.00 0.00 0.00 80 1020.8
20260509152003 18 320 6.4 9.7 0.00 0.00 0.00 80 1020.8
20260509151503 18 320 6.4 9.7 0.00 0.00 0.00 80 1020.8
20260509150504 18 320 6.4 9.7 0.00 0.00 0.00 80 1020.8
20260509150004 18 320 6.4 9.7 0.00 0.00 0.00 80 1020.8
20260509145004 18 320 6.4 9.7 0.00 0.00 0.00 80 1020.8
20260509144503 18 320 6.4 9.7 0.00 0.00 0.00 80 1020.8
20260509144003 18 320 6.4 9.7 0.00 0.00 0.00 80 1020.8
20260509143503 18 320 6.4 9.7 0.00 0.00 0.00 80 1020.8
20260509143004 18 320 6.4 9.7 0.00 0.00 0.00 80 1020.8
20260509142503 18 320 6.4 9.7 0.00 0.00 0.00 80 1020.8
20260509142003 18 320 6.4 9.7 0.00 0.00 0.00 80 1020.8
20260509141503 18 320 6.4 9.7 0.00 0.00 0.00 80 1020.8
20260509141003 18 320 6.4 9.7 0.00 0.00 0.00 80 1020.8
20260509140005 18 320 6.4 9.7 0.00 0.00 0.00 80 1020.8
20260509134503 18 320 6.4 9.7 0.00 0.00 0.00 80 1020.8
20260509134003 18 320 6.4 9.7 0.00 0.00 0.00 80 1020.8
20260509133004 18 320 6.4 9.7 0.00 0.00 0.00 80 1020.8
20260509132504 18 320 6.4 9.7 0.00 0.00 0.00 80 1020.8
20260509132003 18 320 6.4 9.7 0.00 0.00 0.00 80 1020.8
20260509131503 18 320 6.4 9.7 0.00 0.00 0.00 80 1020.8
20260509131003 18 320 6.4 9.7 0.00 0.00 0.00 80 1020.8
20260509130003 18 320 6.4 9.7 0.00 0.00 0.00 80 1020.8
20260509125503 18 320 6.4 9.7 0.00 0.00 0.00 80 1020.8
20260509125004 18 320 6.4 9.7 0.00 0.00 0.00 80 1020.8
20260509124503 18 320 6.4 9.7 0.00 0.00 0.00 80 1020.8
20260509124003 18 320 6.4 9.7 0.00 0.00 0.00 80 1020.8
20260509123503 18 320 6.4 9.7 0.00 0.00 0.00 80 1020.8
20260509123004 18 320 6.4 9.7 0.00 0.00 0.00 80 1020.8
20260509122503 18 320 6.4 9.7 0.00 0.00 0.00 80 1020.8
20260509121503 18 320 6.4 9.7 0.00 0.00 0.00 80 1020.8
20260509121004 18 320 6.4 9.7 0.00 0.00 0.00 80 1020.8
20260509115003 18 320 6.4 9.7 0.00 0.00 0.00 80 1020.8
20260509114503 18 320 6.4 9.7 0.00 0.00 0.00 80 1020.8
20260509114010 18 320 6.4 9.7 0.00 0.00 0.00 80 1020.8
20260509113503 18 320 6.4 9.7 0.00 0.00 0.00 80 1020.8
20260509113003 18 320 6.4 9.7 0.00 0.00 0.00 80 1020.8
20260509112503 18 320 6.4 9.7 0.00 0.00 0.00 80 1020.8
20260509111503 18 320 6.4 9.7 0.00 0.00 0.00 80 1020.8
20260509111004 18 320 6.4 9.7 0.00 0.00 0.00 80 1020.8
20260509110504 18 320 6.4 9.7 0.00 0.00 0.00 80 1020.8
20260509110010 18 320 6.4 9.7 0.00 0.00 0.00 80 1020.8
20260509105504 18 320 6.4 9.7 0.00 0.00 0.00 80 1020.8
20260509105004 18 320 6.4 9.7 0.00 0.00 0.00 80 1020.8
20260509104503 18 320 6.4 9.7 0.00 0.00 0.00 80 1020.8
20260509104003 18 320 6.4 9.7 0.00 0.00 0.00 80 1020.8
20260509103503 18 320 6.4 9.7 0.00 0.00 0.00 80 1020.8
20260509103004 18 320 6.4 9.7 0.00 0.00 0.00 80 1020.8
20260509102503 18 320 6.4 9.7 0.00 0.00 0.00 80 1020.8
20260509102004 18 320 6.4 9.7 0.00 0.00 0.00 80 1020.8
20260509101503 18 320 6.4 9.7 0.00 0.00 0.00 80 1020.8
20260509101003 18 320 6.4 9.7 0.00 0.00 0.00 80 1020.8
20260509100503 18 320 6.4 9.7 0.00 0.00 0.00 80 1020.8
20260509100004 18 320 6.4 9.7 0.00 0.00 0.00 80 1020.8
20260509095003 18 320 6.4 9.7 0.00 0.00 0.00 80 1020.8
20260509094503 18 320 6.4 9.7 0.00 0.00 0.00 80 1020.8
20260509094004 18 320 6.4 9.7 0.00 0.00 0.00 80 1020.8
20260509093503 18 320 6.4 9.7 0.00 0.00 0.00 80 1020.8
20260509093003 18 320 6.4 9.7 0.00 0.00 0.00 80 1020.8
20260509092503 18 320 6.4 9.7 0.00 0.00 0.00 80 1020.8
20260509092003 18 320 6.4 9.7 0.00 0.00 0.00 80 1020.8
20260509091503 18 320 6.4 9.7 0.00 0.00 0.00 80 1020.8
20260509091003 18 320 6.4 9.7 0.00 0.00 0.00 80 1020.8
20260509090504 18 320 6.4 9.7 0.00 0.00 0.00 80 1020.8
20260509090004 18 320 6.4 9.7 0.00 0.00 0.00 80 1020.8
20260509085503 18 320 6.4 9.7 0.00 0.00 0.00 80 1020.8
20260509085003 18 320 6.4 9.7 0.00 0.00 0.00 80 1020.8
20260509084004 18 320 6.4 9.7 0.00 0.00 0.00 80 1020.8
20260509083503 18 320 6.4 9.7 0.00 0.00 0.00 80 1020.8
20260509083010 18 320 6.4 9.7 0.00 0.00 0.00 80 1020.8
20260509082503 18 320 6.4 9.7 0.00 0.00 0.00 80 1020.8
20260509082003 18 320 6.4 9.7 0.00 0.00 0.00 80 1020.8
20260509081503 18 320 6.4 9.7 0.00 0.00 0.00 80 1020.8
20260509081004 18 320 6.4 9.7 0.00 0.00 0.00 80 1020.8
20260509080503 18 320 6.4 9.7 0.00 0.00 0.00 80 1020.8
20260509080004 18 320 6.4 9.7 0.00 0.00 0.00 80 1020.8
20260509075004 18 320 6.4 9.7 0.00 0.00 0.00 80 1020.8
20260509074004 18 320 6.4 9.7 0.00 0.00 0.00 80 1020.8
20260509073003 18 320 6.4 9.7 0.00 0.00 0.00 80 1020.8
20260509072503 18 320 6.4 9.7 0.00 0.00 0.00 80 1020.8
20260509072003 18 320 6.4 9.7 0.00 0.00 0.00 80 1020.8
20260509071504 18 320 6.4 9.7 0.00 0.00 0.00 80 1020.8
20260509071004 18 320 6.4 9.7 0.00 0.00 0.00 80 1020.8
20260509070504 18 320 6.4 9.7 0.00 0.00 0.00 80 1020.8
20260509070004 18 320 6.4 9.7 0.00 0.00 0.00 80 1020.8
20260509065503 18 320 6.4 9.7 0.00 0.00 0.00 80 1020.8
20260509065004 18 320 6.4 9.7 0.00 0.00 0.00 80 1020.8
20260509064008 18 320 6.4 9.7 0.00 0.00 0.00 80 1020.8
20260509063503 18 320 6.4 9.7 0.00 0.00 0.00 80 1020.8
20260509063003 18 320 6.4 9.7 0.00 0.00 0.00 80 1020.8
20260509062504 18 320 6.4 9.7 0.00 0.00 0.00 80 1020.8
20260509061504 18 320 6.4 9.7 0.00 0.00 0.00 80 1020.8
20260509061003 18 320 6.4 9.7 0.00 0.00 0.00 80 1020.8
20260509060503 18 320 6.4 9.7 0.00 0.00 0.00 80 1020.8
20260509060004 18 320 6.4 9.7 0.00 0.00 0.00 80 1020.8
20260509055504 18 320 6.4 9.7 0.00 0.00 0.00 80 1020.8
20260509055004 18 320 6.4 9.7 0.00 0.00 0.00 80 1020.8
20260509054504 18 320 6.4 9.7 0.00 0.00 0.00 80 1020.8
20260509053504 18 320 6.4 9.7 0.00 0.00 0.00 80 1020.8
20260509053003 18 320 6.4 9.7 0.00 0.00 0.00 80 1020.8
20260509052503 18 320 6.4 9.7 0.00 0.00 0.00 80 1020.8
20260509052004 18 320 6.4 9.7 0.00 0.00 0.00 80 1020.8
20260509051003 18 320 6.4 9.7 0.00 0.00 0.00 80 1020.8
20260509050503 18 320 6.4 9.7 0.00 0.00 0.00 80 1020.8
20260509050004 18 320 6.4 9.7 0.00 0.00 0.00 80 1020.8
20260509045503 18 320 6.4 9.7 0.00 0.00 0.00 80 1020.8
20260509045003 18 320 6.4 9.7 0.00 0.00 0.00 80 1020.8
20260509044503 18 320 6.4 9.7 0.00 0.00 0.00 80 1020.8
20260509044004 18 320 6.4 9.7 0.00 0.00 0.00 80 1020.8
20260509043503 18 320 6.4 9.7 0.00 0.00 0.00 80 1020.8
20260509043004 18 320 6.4 9.7 0.00 0.00 0.00 80 1020.8
20260509042504 18 320 6.4 9.7 0.00 0.00 0.00 80 1020.8
20260509042004 18 320 6.4 9.7 0.00 0.00 0.00 80 1020.8
20260509040503 18 320 6.4 9.7 0.00 0.00 0.00 80 1020.8
20260509040004 18 320 6.4 9.7 0.00 0.00 0.00 80 1020.8
20260509035503 18 320 6.4 9.7 0.00 0.00 0.00 80 1020.8
20260509035004 18 320 6.4 9.7 0.00 0.00 0.00 80 1020.8
20260509033504 18 320 6.4 9.7 0.00 0.00 0.00 80 1020.8
20260509033004 18 320 6.4 9.7 0.00 0.00 0.00 80 1020.8
20260509032504 18 320 6.4 9.7 0.00 0.00 0.00 80 1020.8
20260509032003 18 320 6.4 9.7 0.00 0.00 0.00 80 1020.8
20260509031508 18 320 6.4 9.7 0.00 0.00 0.00 80 1020.8
20260509031008 18 320 6.4 9.7 0.00 0.00 0.00 80 1020.8
20260509030504 18 320 6.4 9.7 0.00 0.00 0.00 80 1020.8
20260509030003 18 320 6.4 9.7 0.00 0.00 0.00 80 1020.8
20260509025503 18 320 6.4 9.7 0.00 0.00 0.00 80 1020.8
20260509025003 18 320 6.4 9.7 0.00 0.00 0.00 80 1020.8
20260509024503 18 320 6.4 9.7 0.00 0.00 0.00 80 1020.8
20260509023503 18 320 6.4 9.7 0.00 0.00 0.00 80 1020.8
20260509023004 18 320 6.4 9.7 0.00 0.00 0.00 80 1020.8
20260509022503 18 320 6.4 9.7 0.00 0.00 0.00 80 1020.8
20260509022003 18 320 6.4 9.7 0.00 0.00 0.00 80 1020.8
20260509021504 18 320 6.4 9.7 0.00 0.00 0.00 80 1020.8
20260509020503 18 320 6.4 9.7 0.00 0.00 0.00 80 1020.8
20260509020003 18 320 6.4 9.7 0.00 0.00 0.00 80 1020.8
20260509015003 18 320 6.4 9.7 0.00 0.00 0.00 80 1020.8
20260509014503 18 320 6.4 9.7 0.00 0.00 0.00 80 1020.8
20260509014004 18 320 6.4 9.7 0.00 0.00 0.00 80 1020.8
20260509013004 18 320 6.4 9.7 0.00 0.00 0.00 80 1020.8
20260509012504 18 320 6.4 9.7 0.00 0.00 0.00 80 1020.8
20260509012003 18 320 6.4 9.7 0.00 0.00 0.00 80 1020.8
20260509011503 18 320 6.4 9.7 0.00 0.00 0.00 80 1020.8
20260509011003 18 320 6.4 9.7 0.00 0.00 0.00 80 1020.8
20260509010503 18 320 6.4 9.7 0.00 0.00 0.00 80 1020.8
20260509010004 18 320 6.4 9.7 0.00 0.00 0.00 80 1020.8
20260509005503 18 320 6.4 9.7 0.00 0.00 0.00 80 1020.8
20260509005004 18 320 6.4 9.7 0.00 0.00 0.00 80 1020.8
20260509004504 18 320 6.4 9.7 0.00 0.00 0.00 80 1020.8
20260509004004 18 320 6.4 9.7 0.00 0.00 0.00 80 1020.8
20260509003504 18 320 6.4 9.7 0.00 0.00 0.00 80 1020.8
20260509003004 18 320 6.4 9.7 0.00 0.00 0.00 80 1020.8
20260509002503 18 320 6.4 9.7 0.00 0.00 0.00 80 1020.8
20260509002004 18 320 6.4 9.7 0.00 0.00 0.00 80 1020.8
20260509001503 18 320 6.4 9.7 0.00 0.00 0.00 80 1020.8
20260509001003 18 320 6.4 9.7 0.00 0.00 0.00 80 1020.8
20260509000503 18 320 6.4 9.7 0.00 0.00 0.00 80 1020.8